"Pseudo-MPEC" for C1HDFP2

Created 2019 Dec 13 0:07:04 UT using Find_Orb

Click here for an explanation of pseudo-MPECs

 
 Astrometry: 
     C1HDFP2  C2019 12 02.27249 04 19 52.69 +30 57 29.5    ~C27M 21.6 GVNEOCPG96
     C1HDFP2  C2019 12 02.27769 04 19 52.58 +30 57 22.8    ~C27M 21.5 GVNEOCPG96
     C1HDFP2  C2019 12 02.28287 04 19 52.41 +30 57 17.0    ~C27M 22.1 GVNEOCPG96
     C1HDFP2  C2019 12 02.28805 04 19 52.22 +30 57 11.2    ~C27M 21.4 GVNEOCPG96
     C1HDFP2  C2019 12 02.35622 04 19 50.66 +30 55 53.6    ~C297       VNEOCPV06
     C1HDFP2  C2019 12 02.35938 04 19 50.53 +30 55 48.4    ~C297 22.4 GVNEOCPV06
     C1HDFP2  C2019 12 02.36255 04 19 50.44 +30 55 44.9    ~C297 21.6 GVNEOCPV06
     C1HDFP2  C2019 12 06.18410 04 19 00.02 +29 44 48.6    ~C65M 21.6 GVNEOCPG96
     C1HDFP2  C2019 12 06.18872 04 18 59.99 +29 44 43.6    ~C65M 21.2 GVNEOCPG96
     C1HDFP2  C2019 12 06.19502 04 18 59.89 +29 44 38.0    ~C65M 22.0 GVNEOCPG96
     C1HDFP2  C2019 12 06.20133 04 18 59.70 +29 44 30.2    ~C65M 21.6 GVNEOCPG96

Station data:
(G96) Mt. Lemmon Survey  (N32.442754 W110.788720)  US/Arizona.  Observers T.
   A. Pruyne, B. M. Africano, E. J. Christensen, G. A. Farneth, D. C. Fuls,
   A. R. Gibbs, A. D. Grauer, H. Gröller, J. A. Johnson, R. A. Kowalski, S.
   M. Larson, G. J. Leonard, D. Rankin, R. L. Seaman, F. C. Shelly. 1.5-m
   reflector + 10K CCD.
(V06) Catalina Sky Survey-Kuiper  (N32.416847 W110.732550)  US/Arizona.
   Observers T. A. Pruyne, B. M. Africano, E. J. Christensen, G. A. Farneth,
   D. C. Fuls, A. R. Gibbs, A. D. Grauer, H. Gröller, J. A. Johnson, R. A.
   Kowalski, S. M. Larson, G. J. Leonard, D. Rankin, R. L. Seaman, F. C.
   Shelly. 1.55-m reflector + CCD.

Orbital elements:  C1HDFP2
   Perihelion 2019 Sep 29.781298 +/- 2.79 TT = 18:45:04 (JD 2458756.281298)
Epoch 2019 Dec  6.0 TT = JDT 2458823.5   Earth MOID: 0.2314   Ma: 0.0108
M  18.10282827 +/- 1.5              (J2000 ecliptic)          AutoNEOCP
n   0.26931237 +/- 0.0323           Peri.   99.64870 +/- 4.4
a   2.37482626 +/- 0.19             Node   276.76096 +/- 0.9
e   0.4936395 +/- 0.0474            Incl.    5.82061 +/- 0.34
P   3.66                   H 22.7   G  0.15   U 10.4  
q 1.20251821 +/- 0.0305    Q 3.54713431 +/- 0.375
From 11 observations 2019 Dec. 2-6; mean residual 0".46
Residuals in arcseconds: 
191202 G96  .25+  .48+    191202 V06  .58+  .98+    191206 G96  .30+  .27-    
191202 G96  .48+  .30-    191202 V06  .12-  .54-    191206 G96  .52+  .77+    
191202 G96  .05-  .20-    191202 V06  .31-  .33-    191206 G96  .42-  .37-    
191202 G96  .85-  .09-    191206 G96  .41-  .13-    

Ephemerides (geocentric):
Date (UTC) HH   RA              Dec         delta   r     elong  mag " sig PA
---- -- -- --  -------------   -----------  ------ ------ -----  --- ---- ---
2019 12 13 00  04 18 16.123   +27 49 19.36  .46411 1.4388 165.7 22.5 29.4 161
2019 12 13 01  04 18 16.084   +27 48 39.93  .46440 1.4390 165.6 22.5 29.6 161
2019 12 13 02  04 18 16.048   +27 48 00.53  .46468 1.4392 165.6 22.5 29.9 161
2019 12 13 03  04 18 16.014   +27 47 21.17  .46497 1.4394 165.6 22.5 30.2 161
2019 12 13 04  04 18 15.984   +27 46 41.85  .46526 1.4397 165.5 22.5 30.4 161
2019 12 13 05  04 18 15.956   +27 46 02.57  .46554 1.4399 165.5 22.5 30.7 161
2019 12 13 06  04 18 15.931   +27 45 23.33  .46583 1.4401 165.5 22.5 31.0 161
2019 12 13 07  04 18 15.909   +27 44 44.12  .46612 1.4404 165.4 22.5 31.3 161
2019 12 13 08  04 18 15.891   +27 44 04.95  .46640 1.4406 165.4 22.5 31.5 161
2019 12 13 09  04 18 15.874   +27 43 25.82  .46669 1.4408 165.4 22.5 31.8 161
2019 12 13 10  04 18 15.861   +27 42 46.72  .46698 1.4410 165.3 22.5 32.1 161
2019 12 13 11  04 18 15.851   +27 42 07.66  .46726 1.4413 165.3 22.5 32.4 161
2019 12 13 12  04 18 15.844   +27 41 28.65  .46755 1.4415 165.3 22.5 32.6 160
2019 12 13 13  04 18 15.839   +27 40 49.67  .46784 1.4417 165.2 22.5 32.9 160
2019 12 13 14  04 18 15.838   +27 40 10.72  .46813 1.4420 165.2 22.5 33.2 160
2019 12 13 15  04 18 15.839   +27 39 31.82  .46842 1.4422 165.2 22.5 33.5 160
2019 12 13 16  04 18 15.844   +27 38 52.95  .46871 1.4424 165.1 22.6 33.7 160
2019 12 13 17  04 18 15.851   +27 38 14.12  .46900 1.4426 165.1 22.6 34.0 160
2019 12 13 18  04 18 15.861   +27 37 35.33  .46929 1.4429 165.0 22.6 34.3 160
2019 12 13 19  04 18 15.874   +27 36 56.58  .46958 1.4431 165.0 22.6 34.6 160
2019 12 13 20  04 18 15.890   +27 36 17.86  .46987 1.4433 165.0 22.6 34.9 160
2019 12 13 21  04 18 15.909   +27 35 39.19  .47016 1.4436 164.9 22.6 35.1 160
2019 12 13 22  04 18 15.931   +27 35 00.55  .47045 1.4438 164.9 22.6 35.4 160
2019 12 13 23  04 18 15.956   +27 34 21.95  .47074 1.4440 164.9 22.6 35.7 160
2019 12 14 00  04 18 15.983   +27 33 43.38  .47103 1.4443 164.8 22.6 36.0 160
2019 12 14 01  04 18 16.014   +27 33 04.86  .47132 1.4445 164.8 22.6 36.3 159
2019 12 14 02  04 18 16.048   +27 32 26.37  .47161 1.4447 164.8 22.6 36.6 159
2019 12 14 03  04 18 16.084   +27 31 47.92  .47191 1.4449 164.7 22.6 36.9 159
2019 12 14 04  04 18 16.124   +27 31 09.52  .47220 1.4452 164.7 22.6 37.2 159
2019 12 14 05  04 18 16.166   +27 30 31.14  .47249 1.4454 164.6 22.6 37.4 159
2019 12 14 06  04 18 16.212   +27 29 52.81  .47279 1.4456 164.6 22.6 37.7 159
2019 12 14 07  04 18 16.260   +27 29 14.51  .47308 1.4459 164.6 22.6 38.0 159
2019 12 14 08  04 18 16.311   +27 28 36.26  .47337 1.4461 164.5 22.6 38.3 159
2019 12 14 09  04 18 16.366   +27 27 58.04  .47367 1.4463 164.5 22.6 38.6 159
2019 12 14 10  04 18 16.423   +27 27 19.86  .47396 1.4466 164.5 22.6 38.9 159
2019 12 14 11  04 18 16.483   +27 26 41.72  .47426 1.4468 164.4 22.6 39.2 159
2019 12 14 12  04 18 16.546   +27 26 03.61  .47455 1.4470 164.4 22.6 39.5 159
2019 12 14 13  04 18 16.612   +27 25 25.55  .47485 1.4472 164.4 22.6 39.8 159
2019 12 14 14  04 18 16.681   +27 24 47.52  .47514 1.4475 164.3 22.6 40.1 158
2019 12 14 15  04 18 16.753   +27 24 09.53  .47544 1.4477 164.3 22.6 40.4 158
2019 12 14 16  04 18 16.828   +27 23 31.58  .47573 1.4479 164.2 22.6 40.7 158
2019 12 14 17  04 18 16.906   +27 22 53.67  .47603 1.4482 164.2 22.6 41.0 158
2019 12 14 18  04 18 16.987   +27 22 15.80  .47633 1.4484 164.2 22.6 41.3 158
2019 12 14 19  04 18 17.071   +27 21 37.96  .47662 1.4486 164.1 22.6 41.6 158
2019 12 14 20  04 18 17.158   +27 21 00.17  .47692 1.4489 164.1 22.6 41.9 158
2019 12 14 21  04 18 17.248   +27 20 22.41  .47722 1.4491 164.1 22.6 42.2 158
2019 12 14 22  04 18 17.341   +27 19 44.69  .47751 1.4493 164.0 22.6 42.5 158
2019 12 14 23  04 18 17.436   +27 19 07.01  .47781 1.4496 164.0 22.6 42.8 158